weather.gov     
National Weather Service

Terminal Aerodrome Forecast
NWS Homepage
This page is being discontinued on March 12, 2014.
The same data is available at this site. Please update your bookmarks.
Thank you, and we apologize for the inconvenience.
Please send an email to SR-SRH.Webmaster@noaa.gov with any concerns.


Current Version
Previous Version:    01  02  03  04  05  06  07  08  09  10  11  12  13  14  15  16  17  18  19  20  21  22  23  24  25  26  27  28  29  30  
   31  32  33  34  35  36  37  38  39  
[Printable]
534
FTUS41 KLWX 301100
TAFDCA
TAF
KDCA 301131Z 3012/3112 19005KT P6SM SCT030 OVC060
     FM301700 16007KT P6SM BKN050
     FM302300 15008KT P6SM SCT250
     FM310500 17005KT P6SM BKN090
     FM310600 17005KT 5SM BR BKN090
     FM311000 19006KT 5SM BR BKN050=


U.S. Dept. of Commerce
NOAA National Weather Service
1325 East West Highway
Silver Spring, MD 20910
E-mail: w-nws.webmaster@noaa.gov
Page last modified: May 16, 2007
NATIONAL WEATHER SERVICE: for Safety, for Work, for Fun - FOR LIFE